Location: Prague
(50.0830°N, 14.4670°E)
Time: 08:49:39
(UTC+02:00)

RS-15 - Pass Details

Date: 10 April 2023
Orbit: 1885 x 2159 km, 64.8° (Epoch: 29 May)

Event Time Altitude Azimuth Distance (km) Brightness Sun altitude
Rises 23:49:09 0° 320° (NW) 5,641 11.5 -29.9°
Reaches altitude 10° 23:52:39 10° 318° (NW) 4,610 10.8 -30.1°
Maximum altitude 00:04:26 67° 240° (WSW) 2,174 8.0 -30.8°
Enters shadow 00:07:32 52° 185° (S) 2,405 8.0 -30.9°
